Weather WX

World > North America > United States > New Jersey

Farmingdale, New Jersey Regional Weather

Lat: 40.20N, Lon: 74.17W
Wx Zone: NJZ013
Warning FLW WEATHER ALERT - (More Info. Click Here) Warning
Feedback

Farmingdale, NJ Regional Weather

Expires:201907161700;;736452
ASUS41 KOKX 161614
RWROKX

Regional Weather Roundup
National Weather Service New York NY
1200 PM EDT TUE JUL 16 2019

Note: "FAIR" indicates few or no clouds below 12,000 feet with no
significant weather and/or obstructions to visibility.


NJZ001-105-106-008-010-013-015-019>022-104-161700-
New Jersey
  
CITY           SKY/WX    TMP DP  RH WIND       PRES   REMARKS
Newark/Liberty FAIR      89  60  37 W16G23    30.06F                  
Teterboro      FAIR      88  60  38 SW14      30.05F                  
Caldwell       FAIR      88  60  38 W8G17     30.07F                  
Somerville     FAIR      87  65  47 VRB6      30.05F                  
Linden         FAIR      87  58  36 W13G18    30.07S                  
Perth Amboy      N/A     82 N/A N/A W14         N/A                   
Sussex         FAIR      85  62  46 SW8       30.07F                  
Andover          N/A     83  61  47 S13G18    30.09F                  
Trenton        FAIR      86  66  51 SW9       30.08F                  
Millville      FAIR      87  64  46 W7        30.10S                  
Atlantic City  FAIR      89  65  44 VRB7      30.10S HX  91           
Wrightstown    FAIR      87  64  45 SW12      30.07F                  
Toms River     FAIR      90  64  42 SW6       30.10S HX  91           
Belmar         FAIR      86  64  47 S7        30.10S                  
$$
 

SKY/WX - Weather  TMP - Temperature  DP - Dew Point  RH - Relative Humidity
WIND - Wind Direction/Speed PRES - Barometric Pressure VSB - Visibility
WCI - Wind Chill Index E13G22 Wind - East Wind 13 mph/Gusts of 22 mph